Preview of NWS' New Version of Forecast
This preview is not operational and should not be used for support decisions.

Regional Weather Roundup (RWR)

Issued by National Weather Service (NWS)

                            
000
ASUS44 KJAN 240710
RWRMS 

MISSISSIPPI HOURLY WEATHER ROUNDUP
NATIONAL WEATHER SERVICE JACKSON MS
200 AM CDT MON JUN 24 2019

NOTE: "FAIR: INDICATES FEW OR NO CLOUDS BELOW 12,000 FEET WITH NO
SIGNIFICANT WEATHER AND/OR OBSTRUCTIONS TO VISIBILITY.

MSZ001>002-007>008-010>013-018>021-025>028-034>036-240800-
NORTHWEST MISSISSIPPI
  
CITY           SKY/WX    TMP DP  RH WIND       PRES   REMARKS
BATESVILLE     LGT RAIN  68  68 100 CALM      29.84F                  
CLARKSDALE     CLOUDY    68  68 100 N7        29.84F FOG              
CLEVELAND      RAIN      68  68 100 E10       29.79F                  
GREENWOOD      LGT RAIN  70  68  93 N7        29.83S                  
GREENVILLE       N/A    N/A N/A N/A MISG      29.77F                  
OLIVE BRANCH     N/A     66 N/A N/A CALM      29.86F                  
OXFORD         TSTM      66  66 100 SE3       29.88F                  
TUNICA         RAIN      68  66  94 CALM      29.87S                  
WINONA         TSTM      69  69 100 N6        29.84F                  
$$

MSZ003>006-009-014>017-022>024-029>033-037>039-240800-
NORTHEAST MISSISSIPPI
  
CITY           SKY/WX    TMP DP  RH WIND       PRES   REMARKS
ABERDEEN       CLOUDY    72  72 100 E6        29.87F                  
COLUMBUS AFB   FAIR      75  73  91 SE5       29.85F                  
CORINTH        PTSUNNY   70  68  94 SE6       29.83F                  
GOLDN TRIANGLE FAIR      79  75  87 S12       29.86F                  
STARKVILLE       N/A     77  73  88 S5        29.86F                  
TUPELO         MOCLDY    72  68  87 SE3       29.84F                  
$$

MSZ040-058-240800-
CENTRAL MISSISSIPPI
  
CITY           SKY/WX    TMP DP  RH WIND       PRES   REMARKS
JACKSON INTL   CLOUDY    81  75  82 S16G22    29.86F                  
JACKSON HAWKNS CLOUDY    81  77  88 S13G21    29.86F                  
MADISON        CLOUDY    79  79 100 S17       29.85F                  
MERIDIAN KEY   CLOUDY    81  75  82 S14       29.89F                  
MERIDIAN NAS   CLOUDY    80  75  84 S8        29.89F                  
RAYMOND        FAIR      81  81 100 S14       29.84F HX  91           
VICKSBURG VKS  PTSUNNY   82  77  83 S13G22    29.83F HX  91           
$$

MSZ059>079-240800-
SOUTH MISSISSIPPI
  
CITY           SKY/WX    TMP DP  RH WIND       PRES   REMARKS
BROOKHAVEN     FAIR      79  77  94 E13       29.90F                  
HATTIESBURG    FAIR      80  76  87 S6        29.93F                  
LAUREL         CLOUDY    81  77  88 S10       29.91F                  
MCCOMB         CLOUDY    80  76  87 S14       29.91F                  
NATCHEZ        CLOUDY    80  76  87 S13G18    29.87F                  
PINE BELT      CLOUDY    80  78  94 S9        29.93F                  
$$

MSZ080>082-240800-
COASTAL MISSISSIPPI
  
CITY           SKY/WX    TMP DP  RH WIND       PRES   REMARKS
BILOXI         FAIR      84  78  82 S18G25    29.94F HX  95           
PASCAGOULA     FAIR      85  76  74 S8G18     29.95F HX  94           
GULFPORT       MOCLDY    84  77  79 S15G23    29.93F HX  94           
$$

LAZ007>009-015>016-023>026-240800-
NORTHEAST LOUISIANA
  
CITY           SKY/WX    TMP DP  RH WIND       PRES   REMARKS
BASTROP        TSTM      68  68  98 NW22G32   29.84R VSB 3/4          
TALLULAH/VBURG MOCLDY    82  76  81 S12G18    29.83F                  
VIDALIA        CLOUDY    82  77  85 S16G24    29.86S                  
$$